Location: Jackson
(42.2460°N, 84.4010°W)
Time: 18:58:06
(UTC-04:00)

Courier 1B Rocket - Pass Details

Date: 17 February 2026
Orbit: 920 x 1201 km, 28.2° (Epoch: 12 March)

Event Time Altitude Azimuth Distance (km) Brightness Sun altitude
Rises 19:08:13 0° 213° (SSW) 3,538 8.5 -10.9°
Reaches altitude 10° 19:12:14 10° 188° (S) 2,608 7.4 -11.6°
Maximum altitude 19:15:10 14° 160° (SSE) 2,373 6.9 -12.2°
Drops below altitude 10° 19:18:08 10° 132° (SE) 2,653 6.9 -12.7°
Enters shadow 19:18:58 - 125° (SE) 2,812 7.0 -12.9°
Sets 19:22:18 0° 107° (ESE) 3,649 - -13.5°
